Location: Irma
(52.9170°N, 111.2330°W)
Time: 07:59:15
(UTC-06:00)

Cosmos 1633 Rocket - Visible Passes

Search period start: 23 June 2018 00:00
Search period end: 03 July 2018 00:00
Orbit: 608 x 623 km, 82.5° (Epoch: 22 June)

Date Brightness Start Highest point End Pass type
(mag) Time Alt. Az. Time Alt. Az. Time Alt. Az.
23 Jun 5.1 00:57:16 10° SE 01:00:13 18° E 01:03:13 10° NE visible
23 Jun 3.3 02:34:21 18° SSW 02:37:33 63° WNW 02:41:59 10° N visible
24 Jun 4.5 01:13:27 15° SE 01:16:16 28° E 01:20:04 10° NNE visible
24 Jun 4.0 02:50:31 14° SW 02:53:56 39° WNW 02:58:07 10° N visible
25 Jun 3.7 01:29:36 20° SSE 01:32:23 46° E 01:36:38 10° NNE visible
25 Jun 4.7 03:06:44 10° WSW 03:10:24 25° WNW 03:14:07 10° N visible
26 Jun 5.5 00:10:38 10° E 00:11:38 11° ENE 00:12:38 10° ENE visible
26 Jun 3.1 01:45:46 22° S 01:48:36 76° E 01:53:03 10° NNE visible
26 Jun 5.2 03:24:06 10° WSW 03:26:58 17° WNW 03:29:53 10° NNW visible
27 Jun 5.1 00:24:50 11° ESE 00:27:36 17° E 00:30:30 10° NE visible
27 Jun 3.3 02:01:54 20° SSW 02:04:53 66° WNW 02:09:20 10° N visible
27 Jun 5.5 03:42:20 10° WNW 03:43:38 11° NW 03:44:56 10° NW visible
28 Jun 4.4 00:40:57 16° SE 00:43:37 27° E 00:47:23 10° NNE visible
28 Jun 4.0 02:18:02 16° SW 02:21:16 40° WNW 02:25:29 10° N visible
29 Jun 3.7 00:57:05 20° SSE 00:59:45 44° E 01:03:58 10° NNE visible
29 Jun 4.7 02:34:09 11° WSW 02:37:44 26° WNW 02:41:30 10° N visible
29 Jun 5.5 23:38:29 10° E 23:39:01 10° ENE 23:39:33 10° ENE visible
30 Jun 3.1 01:13:11 22° S 01:15:57 73° E 01:20:23 10° NNE visible
30 Jun 5.2 02:51:19 10° WSW 02:54:18 17° WNW 02:57:17 10° NNW visible
30 Jun 5.0 23:52:12 10° ESE 23:54:57 17° E 23:57:46 10° NE visible
01 Jul 3.2 01:29:17 21° SSW 01:32:14 69° WNW 01:36:41 10° N visible
01 Jul 5.6 03:09:25 10° WNW 03:10:56 11° NW 03:12:29 10° NW visible
02 Jul 4.4 00:08:17 15° SE 00:10:59 26° E 00:14:41 10° NNE visible
02 Jul 4.0 01:45:21 16° SW 01:48:36 42° WNW 01:52:51 10° N visible
